STARLINK-4267, 52864

Orbit data source: Space-Track

STARLINK-4267, 52864 is a payload satellite owned by SpaceX/Seattle (US) in LEO that was launched on Fri, 17 Jun 2022 UTC via an FALCON 9 launch vehicle from the Air Force Eastern Test Range (AFETR). Payload-class satellites include a variety of spacecraft equipped with specific instruments for various scientific and technological missions. These include communications satellites like Starlink; space stations such as the ISS; scientific satellites like the Hubble; Earth observation satellites from companies like Planet Labs, Umbra, and HawkEye 360; GPS; miniature CubeSats for education and research; and military/defense satellites.

Loading next visibility...
Identifier
52864, 2022-062AL
Orbit
LEO
Country
Flag of USUS
Related business
Manufacturer
SpaceX/Seattle
Mission
Operational Commercial Communications
Bus & Motor
STARLINK, Unknown motor
Mass
297 kg wet, ~275 kg dry
Launch date (UTC)
2022-06-17 (4 years ago)
Launch vehicle
FALCON 9
Launch site
Air Force Eastern Test Range (AFETR)
Object type
Payload
Rocket body
Debris
Shape & HBR
Box + 1 Pan, 10.1 m
Radar Cross Section
13.562 m², Large (>1 m²)

Expand to show TLE details & history
Last TLE update: 2 days ago

TLE from 2 days ago
0 STARLINK-4267
1 52864U 22062AL  26171.34218024 -.00000298  00000-0 -66250-6 0  9994
2 52864  53.1595 283.1788 0001186  89.2591 270.8536 15.08826933221429
Epoch: 2026-06-20T08:12Z
TLE epoch observation values (Epoch: 2026-06-20T08:12:44.372Z)
Latitude
-0.00006°
Longitude
-108.56431°
Altitude
540.663 km
Speed
7.593 km/s
True Right ascension
18h 52m 42s
True Declination
0° 00' 00"
Sunlit
Object was in full shadow at epoch
Visualization orbit readout
Latitude
Unknown
Longitude
Unknown
Altitude
Unknown
Speed
Unknown
Apparent Right ascension
Unknown
Apparent Declination
Unknown
Sunlit
N/A
Visualization observer readout
Local Sidereal Time
21:34:57
Azimuth
Unknown
Elevation
Unknown
Doppler factor
Unknown
Orbital elements
Apogee altitude
540.858 km
Perigee altitude
539.217 km
Semi-major axis
6,918.175 km
Eccentricity
0.00012
Inclination
53.1595°
RAAN
283.1788°
Arg. of periapsis
89.2591°
True anomaly
270.84001°
Mean anomaly
270.8536°
Eccentric anomaly
270.84681°
Mean motion
3.77186 °/min
Orbital period
95.44 mins
BSTAR
-6.625e-7
Loading maneuver chart data...
Computing Atmospheric mass density...
Loading historical data...
Loading historical data...
Loading historical data...
Loading historical data...
Loading historical data...
Loading historical data...
Loading historical data...

Documentation

Showing up to 5 results
|